This demonstration page uses our WeatherBlox Daily Observations layout. Learn more.

Left ArrowRight Arrow

38.89511, -77.03637

Hourly Observations for May 16, 2018

Temp ( °F °C ) Dew Point ( °F °C ) Humidity (%) Winds ( mph kmh ) Pressure ( in mb ) Visibility ( mi km ) Precip ( " mm )
12:32 am 00:32 Cloudy 70 21.1 66 18.9 87 87 ESE 3 6 30.00 1016 10 16 0.00 0.00
12:52 am 00:52 Cloudy with Light Rain 69 20.6 65 18.3 87 87 E 5 7 30.00 1016 10 16 0.00 0.03
1:17 am 01:17 Cloudy 69 20.6 65 18.3 87 87 E 5 7 30.00 1016 10 16 0.00 0.03
1:49 am 01:49 Cloudy 70 21 64 18 83 83 ESE 5 7 30.00 1016 10 16 0.00 0.03
1:52 am 01:52 Cloudy 69 20.6 65 18.3 87 87 ESE 3 6 30.00 1016 10 16 0.00 0.03
2:52 am 02:52 Mostly Cloudy with Light Rain 69 20.6 65 18.3 87 87 S 7 11 29.99 1016 10 16 0.01 0.25
3:03 am 03:03 Cloudy with Light Rain 69 20.6 65 18.3 87 87 S 3 6 30.00 1016 10 16 0.00 0.03
3:52 am 03:52 Cloudy with Light Rain 69 20.6 65 18.3 87 87 S 7 11 29.99 1016 10 16 0.00 0.03
4:52 am 04:52 Cloudy 69 20.6 65 18.3 87 87 S 6 9 29.99 1016 10 16 0.01 0.25
5:06 am 05:06 Cloudy with Light Rain 69 20.6 65 18.3 87 87 SSE 8 13 30.00 1016 10 16 0.00 0.03
5:43 am 05:43 Cloudy with Light Rain 69 20.6 65 18.3 87 87 SSE 5 7 30.00 1016 10 16 0.00 0.03
5:52 am 05:52 Cloudy 69 20.6 65 18.3 87 87 SE 5 7 29.99 1016 10 16 0.00 0.03
6:52 am 06:52 Cloudy 68 20 64 17.8 87 87 SE 3 6 30.00 1016 10 16 0.00 0.00
7:52 am 07:52 Cloudy with Light Rain 69 20.6 64 17.8 84 84 SSE 7 11 30.00 1016 10 16 0.00 0.03
8:52 am 08:52 Cloudy 71 21.7 65 18.3 81 81 S 3 6 30.01 1016 10 16 0.00 0.03
9:21 am 09:21 Cloudy 71 21.7 65 18.3 81 81 SSW 3 6 30.03 1017 10 16 0.00 0.00
9:52 am 09:52 Cloudy with Light Rain 71 21.7 66 18.9 84 84 S 3 6 30.02 1017 10 16 0.00 0.03
10:52 am 10:52 Cloudy 72 22.2 66 18.9 82 82 Calm 30.03 1017 10 16 0.00 0.03
11:52 am 11:52 Cloudy with Light Rain 73 22.8 67 19.4 81 81 Calm 30.03 1017 10 16 0.00 0.03
12:52 pm 12:52 Cloudy with Light Rain 72 22.2 68 20 87 87 S 3 6 30.02 1017 4 6 0.02 0.51
1:10 pm 13:10 Cloudy with Light Rain 72 22.2 69 20.6 91 91 Calm 30.03 1017 4 6 0.03 0.76
1:45 pm 13:45 Cloudy with Mist and Fog 73 22.8 69 20.6 87 87 Calm 30.00 1016 6 10 0.03 0.76
1:52 pm 13:52 Cloudy with Mist and Fog 74 23.3 69 20.6 85 85 Calm 30.00 1016 6 10 0.03 0.76
2:11 pm 14:11 Cloudy with Light Rain 74 23.3 69 20.6 85 85 Calm 30.00 1016 7 11 0.00 0.03
2:36 pm 14:36 Cloudy 75 23.9 69 20.6 82 82 Calm 30.00 1016 7 11 0.00 0.03
2:52 pm 14:52 Cloudy 75 23.9 70 21.1 84 84 NE 3 6 29.99 1016 8 13 0.00 0.03
2:59 pm 14:59 Cloudy 74 23.3 69 20.6 85 85 ENE 3 6 30.00 1016 10 16 0.00 0.00
3:12 pm 15:12 Cloudy with Light Rain 73 22.8 70 21.1 90 90 ENE 5 7 30.00 1016 4 6 0.01 0.25
3:39 pm 15:39 Cloudy with Light Rain 73 22.8 69 20.6 87 87 NE 9 15 29.97 1015 6 10 0.02 0.51
3:45 pm 15:45 Cloudy with Light Rain 73 22.8 69 20.6 87 87 E 7 11 29.97 1015 6 10 0.02 0.51
3:52 pm 15:52 Cloudy with Light Rain 73 22.8 69 20.6 87 87 E 12 19 29.97 1015 7 11 0.02 0.51
4:10 pm 16:10 Cloudy with Light Rain 73 22.8 69 20.6 87 87 E 9 15 29.97 1015 7 11 0.00 0.03
4:52 pm 16:52 Cloudy with Light Rain 72 22.2 68 20 87 87 E 8 13 29.97 1015 10 16 0.08 2.03
5:31 pm 17:31 Cloudy with Nearby Thunderstorms 72 22.2 68 20 87 87 ENE 7 11 29.97 1015 7 11 0.02 0.51
5:52 pm 17:52 Cloudy with Nearby Thunderstorms 72 22.2 68 20 87 87 ENE 6 9 29.97 1015 9 14 0.03 0.76
6:34 pm 18:34 Cloudy with Light Rain 72 22.2 68 20 87 87 E 8 13 29.97 1015 10 16 0.01 0.25
6:52 pm 18:52 Cloudy with Light Rain 71 21.7 67 19.4 87 87 E 10 17 29.97 1015 9 14 0.01 0.25
7:16 pm 19:16 Cloudy with Light Rain 70 21.1 66 18.9 87 87 ENE 12 19 29.97 1015 10 16 0.00 0.03
7:37 pm 19:37 Cloudy with Light Rain 69 20.6 65 18.3 87 87 E 10 17 29.97 1015 10 16 0.01 0.25
7:52 pm 19:52 Cloudy with Light Rain 69 20.6 66 18.9 90 90 ENE 6 9 29.97 1015 10 16 0.01 0.25
8:08 pm 20:08 Cloudy 69 20.6 65 18.3 87 87 ENE 10 17 29.97 1015 10 16 0.00 0.03
8:52 pm 20:52 Cloudy 68 20 65 18.3 90 90 NE 8 13 29.97 1015 10 16 0.00 0.03
9:52 pm 21:52 Cloudy with Light Rain 68 20 65 18.3 90 90 NE 8 13 29.98 1015 10 16 0.01 0.25
10:20 pm 22:20 Cloudy with Heavy Rain 67 19.4 64 17.8 91 91 NE 9 15 29.97 1015 2 3 0.06 1.52
10:26 pm 22:26 Cloudy with Heavy Rain 67 19.4 64 17.8 91 91 NNE 10 17 29.97 1015 1 2 0.19 4.83
10:34 pm 22:34 Cloudy with Heavy Rain 67 19.4 64 17.8 91 91 N 7 11 29.97 1015 2 3 0.34 8.64
10:44 pm 22:44 Cloudy with Rain 67 19.4 65 18.3 93 93 NE 10 17 29.97 1015 7 11 0.39 9.91
10:52 pm 22:52 Cloudy with Light Rain 67 19.4 64 17.8 91 91 NE 9 15 29.97 1015 10 16 0.39 9.91
11:14 pm 23:14 Cloudy 67 19.4 64 17.8 91 91 NNE 8 13 29.97 1015 10 16 0.01 0.25
11:34 pm 23:34 Cloudy with Heavy Rain 67 19.4 64 17.8 91 91 NNE 7 11 29.97 1015 3 4 0.07 1.78
11:42 pm 23:42 Cloudy with Rain 67 19.4 64 17.8 91 91 NNE 8 13 29.97 1015 2 3 0.20 5.08
11:50 pm 23:50 Cloudy with Light Rain 66 19 64 18 94 94 NNE 9 15 29.97 1015 10 16 0.20 5.08

Powered by AerisWeather